PAL1876 RPLL-RPVM

Flight info

Callsign PAL1876
Flight time 0h 56m
Altitude 39000
Route IPATA2R IPATA W25 BATAY BATAY3P
Aircraft A343/H-SDE2E3FGHIJ4J5M1RWXY/LB1D1

Departure

Time 2026-05-07 05:10
Airport Ninoy Aquino International Airport (RPLL)

Arrival

Time 2026-05-07 06:06
Airport Mactan Cebu International Airport (RPVM)
Time Latitude Longitude Altitude Speed Heading
2026-05-07 04:28 14.51029 121.01411 63 ft 0 kts 225°
2026-05-07 04:30 14.51030 121.01411 63 ft 0 kts 225°
2026-05-07 04:33 14.51030 121.01412 63 ft 0 kts 225°
2026-05-07 04:51 14.51031 121.01412 73 ft 0 kts 225°
2026-05-07 04:52 14.51032 121.01414 62 ft 2 kts 225°
2026-05-07 04:53 14.51043 121.01424 62 ft 0 kts 230°
2026-05-07 04:53 14.51050 121.01432 62 ft 2 kts 230°
2026-05-07 04:53 14.51060 121.01445 62 ft 2 kts 227°
2026-05-07 04:53 14.51071 121.01458 62 ft 2 kts 205°
2026-05-07 04:54 14.51087 121.01462 62 ft 2 kts 146°
2026-05-07 04:54 14.51095 121.01457 62 ft 2 kts 126°
2026-05-07 04:54 14.51090 121.01462 62 ft 0 kts 135°
2026-05-07 04:57 14.51090 121.01461 62 ft 0 kts 135°
2026-05-07 05:00 14.51081 121.01471 62 ft 5 kts 134°
2026-05-07 05:00 14.51048 121.01506 62 ft 8 kts 134°
2026-05-07 05:01 14.51003 121.01552 62 ft 10 kts 135°
2026-05-07 05:01 14.50949 121.01608 64 ft 12 kts 135°
2026-05-07 05:01 14.50884 121.01658 63 ft 10 kts 173°
2026-05-07 05:01 14.50832 121.01614 63 ft 11 kts 240°
2026-05-07 05:02 14.50792 121.01540 65 ft 13 kts 240°
2026-05-07 05:02 14.50743 121.01454 62 ft 15 kts 240°
2026-05-07 05:02 14.50687 121.01353 63 ft 17 kts 240°
2026-05-07 05:02 14.50626 121.01243 63 ft 19 kts 240°
2026-05-07 05:03 14.50558 121.01120 64 ft 21 kts 239°
2026-05-07 05:03 14.50483 121.00986 63 ft 22 kts 240°
2026-05-07 05:03 14.50402 121.00841 64 ft 24 kts 240°
2026-05-07 05:03 14.50315 121.00685 62 ft 26 kts 240°
2026-05-07 05:04 14.50223 121.00520 63 ft 27 kts 239°
2026-05-07 05:04 14.50128 121.00348 62 ft 28 kts 240°
2026-05-07 05:04 14.50029 121.00171 64 ft 29 kts 240°
2026-05-07 05:04 14.49944 121.00019 68 ft 15 kts 240°
2026-05-07 05:05 14.49896 120.99968 66 ft 3 kts 193°
2026-05-07 05:05 14.49891 120.99969 67 ft 0 kts 173°
2026-05-07 05:07 14.49881 120.99971 77 ft 3 kts 171°
2026-05-07 05:07 14.49837 120.99990 66 ft 11 kts 147°
2026-05-07 05:08 14.49815 121.00050 69 ft 8 kts 77°
2026-05-07 05:08 14.49844 121.00111 64 ft 1 kts 60°
2026-05-07 05:08 14.49844 121.00112 73 ft 1 kts 60°
2026-05-07 05:09 14.49928 121.00263 63 ft 58 kts 59°
2026-05-07 05:09 14.50246 121.00835 62 ft 122 kts 60°
2026-05-07 05:09 14.50759 121.01753 70 ft 171 kts 61°
2026-05-07 05:09 14.51391 121.02874 548 ft 186 kts 63°
2026-05-07 05:10 14.52038 121.04053 1290 ft 193 kts 60°
2026-05-07 05:10 14.52729 121.05306 1886 ft 209 kts 61°
2026-05-07 05:10 14.53495 121.06690 2395 ft 237 kts 61°
2026-05-07 05:10 14.54343 121.08220 3202 ft 251 kts 61°
2026-05-07 05:11 14.55216 121.09795 4275 ft 254 kts 61°
2026-05-07 05:11 14.56100 121.11388 5344 ft 258 kts 61°
2026-05-07 05:11 14.56952 121.13043 6359 ft 264 kts 68°
2026-05-07 05:11 14.57418 121.14887 7307 ft 269 kts 81°
2026-05-07 05:12 14.57658 121.16828 8201 ft 275 kts 83°
2026-05-07 05:12 14.57870 121.18816 9100 ft 281 kts 84°
2026-05-07 05:12 14.58088 121.20843 9975 ft 287 kts 84°
2026-05-07 05:12 14.58276 121.22942 10533 ft 304 kts 88°
2026-05-07 05:13 14.58018 121.25179 10892 ft 325 kts 107°
2026-05-07 05:13 14.56968 121.27277 11520 ft 335 kts 127°
2026-05-07 05:13 14.55266 121.28953 12258 ft 343 kts 141°
2026-05-07 05:13 14.53337 121.30438 12968 ft 349 kts 143°
2026-05-07 05:14 14.51357 121.31922 13752 ft 353 kts 142°
2026-05-07 05:14 14.49369 121.33422 14444 ft 356 kts 142°
2026-05-07 05:14 14.47360 121.34948 15139 ft 360 kts 142°
2026-05-07 05:14 14.45340 121.36488 15854 ft 363 kts 142°
2026-05-07 05:15 14.43297 121.38049 16509 ft 368 kts 142°
2026-05-07 05:15 14.41230 121.39631 17231 ft 372 kts 142°
2026-05-07 05:15 14.39141 121.41230 17965 ft 376 kts 142°
2026-05-07 05:15 14.37026 121.42848 18577 ft 381 kts 142°
2026-05-07 05:16 14.34894 121.44479 19200 ft 384 kts 142°
2026-05-07 05:16 14.32740 121.46127 19801 ft 388 kts 141°
2026-05-07 05:16 14.30568 121.47788 20452 ft 390 kts 142°
2026-05-07 05:16 14.28402 121.49444 20964 ft 396 kts 142°
2026-05-07 05:17 14.26180 121.51144 21555 ft 399 kts 142°
2026-05-07 05:17 14.23903 121.52883 22078 ft 405 kts 142°
2026-05-07 05:17 14.21658 121.54594 22646 ft 409 kts 142°
2026-05-07 05:17 14.19364 121.56344 23215 ft 412 kts 142°
2026-05-07 05:18 14.17049 121.58111 23723 ft 416 kts 142°
2026-05-07 05:18 14.14717 121.59888 24171 ft 419 kts 142°
2026-05-07 05:18 14.12362 121.61682 24628 ft 423 kts 142°
2026-05-07 05:18 14.09989 121.63491 25095 ft 426 kts 142°
2026-05-07 05:19 14.07600 121.65320 25551 ft 430 kts 143°
2026-05-07 05:19 14.05188 121.67159 26012 ft 433 kts 142°
2026-05-07 05:19 14.02761 121.69009 26469 ft 436 kts 143°
2026-05-07 05:19 14.00315 121.70873 26910 ft 439 kts 142°
2026-05-07 05:20 13.97853 121.72749 27341 ft 442 kts 143°
2026-05-07 05:20 13.95374 121.74638 27756 ft 445 kts 143°
2026-05-07 05:20 13.92875 121.76542 28169 ft 448 kts 143°
2026-05-07 05:20 13.90360 121.78458 28590 ft 451 kts 143°
2026-05-07 05:21 13.87829 121.80386 28978 ft 454 kts 143°
2026-05-07 05:21 13.82728 121.84266 29808 ft 458 kts 144°
2026-05-07 05:21 13.80147 121.86212 30139 ft 461 kts 144°
2026-05-07 05:22 13.77550 121.88166 30458 ft 464 kts 144°
2026-05-07 05:22 13.74938 121.90131 30781 ft 466 kts 144°
2026-05-07 05:22 13.72317 121.92104 31090 ft 468 kts 144°
2026-05-07 05:22 13.69682 121.94088 31413 ft 470 kts 144°
2026-05-07 05:23 13.67037 121.96080 31709 ft 472 kts 145°
2026-05-07 05:23 13.64417 121.98054 32038 ft 473 kts 145°
2026-05-07 05:23 13.61764 122.00053 32467 ft 472 kts 145°
2026-05-07 05:23 13.59120 122.02047 32909 ft 471 kts 145°
2026-05-07 05:24 13.56482 122.04035 33333 ft 470 kts 145°
2026-05-07 05:24 13.53850 122.06017 33748 ft 469 kts 146°
2026-05-07 05:24 13.51222 122.07996 34113 ft 468 kts 146°
2026-05-07 05:24 13.48600 122.09969 34491 ft 466 kts 146°
2026-05-07 05:25 13.45990 122.11933 34855 ft 465 kts 146°
2026-05-07 05:25 13.44230 122.13257 35090 ft 464 kts 146°
2026-05-07 05:25 13.41630 122.15212 35438 ft 462 kts 146°
2026-05-07 05:25 13.39038 122.17160 35775 ft 461 kts 146°
2026-05-07 05:26 13.36453 122.19102 36105 ft 460 kts 146°
2026-05-07 05:26 13.33908 122.21015 36420 ft 459 kts 146°
2026-05-07 05:26 13.31331 122.22950 36729 ft 459 kts 146°
2026-05-07 05:26 13.28749 122.24888 36860 ft 460 kts 146°
2026-05-07 05:27 13.26174 122.26821 36871 ft 457 kts 146°
2026-05-07 05:27 13.21062 122.30657 36867 ft 454 kts 146°
2026-05-07 05:28 13.15960 122.34483 36860 ft 454 kts 146°
2026-05-07 05:28 13.10855 122.38309 36861 ft 455 kts 146°
2026-05-07 05:29 13.05747 122.42136 36866 ft 455 kts 146°
2026-05-07 05:29 13.00641 122.45960 36862 ft 455 kts 146°
2026-05-07 05:30 12.95532 122.49783 36861 ft 455 kts 146°
2026-05-07 05:30 12.90421 122.53606 36865 ft 455 kts 146°
2026-05-07 05:31 12.85312 122.57426 36861 ft 455 kts 146°
2026-05-07 05:31 12.80204 122.61243 36863 ft 455 kts 146°
2026-05-07 05:32 12.75092 122.65061 36864 ft 455 kts 146°
2026-05-07 05:32 12.70009 122.68855 36862 ft 455 kts 146°
2026-05-07 05:33 12.64893 122.72672 36866 ft 455 kts 146°
2026-05-07 05:33 12.59778 122.76487 36860 ft 455 kts 146°
2026-05-07 05:34 12.54667 122.80296 36864 ft 454 kts 146°
2026-05-07 05:34 12.49555 122.84105 36856 ft 454 kts 146°
2026-05-07 05:35 12.44445 122.87910 36855 ft 454 kts 146°
2026-05-07 05:35 12.39329 122.91717 36858 ft 455 kts 146°
2026-05-07 05:36 12.34202 122.95531 36854 ft 456 kts 146°
2026-05-07 05:36 12.29072 122.99346 36852 ft 456 kts 146°
2026-05-07 05:37 12.23948 123.03154 36853 ft 455 kts 146°
2026-05-07 05:37 12.18828 123.06956 36853 ft 455 kts 146°
2026-05-07 05:38 12.13707 123.10758 36853 ft 455 kts 146°
2026-05-07 05:38 12.08587 123.14557 36851 ft 455 kts 146°
2026-05-07 05:39 12.03463 123.18357 36850 ft 455 kts 146°
2026-05-07 05:39 11.98338 123.22156 36851 ft 455 kts 146°
2026-05-07 05:40 11.94265 123.25175 36850 ft 454 kts 145°
2026-05-07 05:40 11.89146 123.28967 36847 ft 455 kts 145°
2026-05-07 05:41 11.84027 123.32757 36708 ft 454 kts 145°
2026-05-07 05:41 11.81505 123.34625 36692 ft 441 kts 145°
2026-05-07 05:41 11.79056 123.36438 36694 ft 429 kts 145°
2026-05-07 05:41 11.76644 123.38222 36283 ft 428 kts 146°
2026-05-07 05:42 11.74232 123.40006 35789 ft 429 kts 146°
2026-05-07 05:42 11.71810 123.41796 35269 ft 431 kts 145°
2026-05-07 05:42 11.69371 123.43598 34735 ft 435 kts 146°
2026-05-07 05:42 11.66906 123.45419 34087 ft 440 kts 146°
2026-05-07 05:43 11.64412 123.47262 33351 ft 445 kts 146°
2026-05-07 05:43 11.61893 123.49122 32629 ft 449 kts 146°
2026-05-07 05:43 11.59351 123.50998 31901 ft 453 kts 145°
2026-05-07 05:43 11.56820 123.52867 31157 ft 458 kts 145°
2026-05-07 05:44 11.54230 123.54779 30491 ft 461 kts 144°
2026-05-07 05:44 11.51642 123.56690 29977 ft 459 kts 144°
2026-05-07 05:44 11.49060 123.58596 29385 ft 457 kts 144°
2026-05-07 05:44 11.46491 123.60491 28799 ft 454 kts 143°
2026-05-07 05:45 11.43938 123.62374 28255 ft 451 kts 143°
2026-05-07 05:45 11.41402 123.64244 27692 ft 449 kts 143°
2026-05-07 05:45 11.38880 123.66103 27151 ft 446 kts 143°
2026-05-07 05:45 11.36377 123.67945 26606 ft 443 kts 142°
2026-05-07 05:46 11.33889 123.69779 26036 ft 440 kts 142°
2026-05-07 05:46 11.31414 123.71605 25481 ft 438 kts 142°
2026-05-07 05:46 11.28954 123.73419 24938 ft 435 kts 142°
2026-05-07 05:46 11.26507 123.75220 24385 ft 433 kts 142°
2026-05-07 05:47 11.24071 123.77014 23828 ft 431 kts 142°
2026-05-07 05:47 11.21650 123.78795 23263 ft 428 kts 142°
2026-05-07 05:47 11.19246 123.80565 22677 ft 425 kts 142°
2026-05-07 05:47 11.16836 123.82287 22121 ft 422 kts 146°
2026-05-07 05:48 11.14155 123.83499 21517 ft 425 kts 163°
2026-05-07 05:48 11.11220 123.83802 20947 ft 427 kts 181°
2026-05-07 05:48 11.08302 123.83230 20385 ft 428 kts 194°
2026-05-07 05:48 11.05459 123.82365 19842 ft 425 kts 195°
2026-05-07 05:49 11.02636 123.81501 19289 ft 422 kts 194°
2026-05-07 05:49 10.99826 123.80668 18746 ft 420 kts 193°
2026-05-07 05:49 10.97023 123.79859 18199 ft 417 kts 193°
2026-05-07 05:49 10.94236 123.79065 17587 ft 415 kts 193°
2026-05-07 05:50 10.91465 123.78283 17019 ft 411 kts 193°
2026-05-07 05:50 10.88722 123.77513 16452 ft 407 kts 193°
2026-05-07 05:50 10.86038 123.76761 15933 ft 404 kts 192°
2026-05-07 05:50 10.83342 123.76008 15389 ft 400 kts 192°
2026-05-07 05:51 10.80663 123.75260 14841 ft 397 kts 192°
2026-05-07 05:51 10.78007 123.74525 14314 ft 394 kts 192°
2026-05-07 05:51 10.75373 123.73792 13808 ft 391 kts 192°
2026-05-07 05:51 10.72759 123.73060 13265 ft 388 kts 192°
2026-05-07 05:52 10.70173 123.72337 12693 ft 383 kts 192°
2026-05-07 05:52 10.67671 123.71636 12128 ft 360 kts 192°
2026-05-07 05:52 10.65345 123.70983 11670 ft 338 kts 192°
2026-05-07 05:52 10.63083 123.70353 11184 ft 337 kts 192°
2026-05-07 05:53 10.60828 123.69730 10807 ft 334 kts 191°
2026-05-07 05:53 10.58623 123.69121 10684 ft 323 kts 192°
2026-05-07 05:53 10.56495 123.68525 10578 ft 312 kts 192°
2026-05-07 05:53 10.54435 123.67949 10466 ft 302 kts 191°
2026-05-07 05:54 10.52423 123.67388 10210 ft 299 kts 191°
2026-05-07 05:54 10.50409 123.66829 9848 ft 301 kts 191°
2026-05-07 05:54 10.48393 123.66269 9477 ft 300 kts 191°
2026-05-07 05:54 10.46383 123.65710 9123 ft 299 kts 191°
2026-05-07 05:55 10.44379 123.65153 8766 ft 298 kts 192°
2026-05-07 05:55 10.44238 123.65114 8734 ft 298 kts 192°
2026-05-07 05:55 10.42551 123.64645 8452 ft 296 kts 192°
2026-05-07 05:55 10.40566 123.64092 8102 ft 295 kts 192°
2026-05-07 05:56 10.38608 123.63546 7567 ft 288 kts 192°
2026-05-07 05:56 10.36703 123.63015 7034 ft 278 kts 191°
2026-05-07 05:56 10.34833 123.62608 6532 ft 273 kts 175°
2026-05-07 05:56 10.33094 123.63130 6316 ft 257 kts 141°
2026-05-07 05:57 10.31871 123.64393 6049 ft 249 kts 126°
2026-05-07 05:57 10.30791 123.65765 5727 ft 248 kts 126°
2026-05-07 05:57 10.29682 123.67091 5444 ft 246 kts 128°
2026-05-07 05:57 10.28532 123.68374 5158 ft 246 kts 130°
2026-05-07 05:58 10.27359 123.69628 4842 ft 244 kts 130°
2026-05-07 05:58 10.26177 123.70865 4545 ft 244 kts 131°
2026-05-07 05:58 10.24993 123.72094 4236 ft 243 kts 131°
2026-05-07 05:58 10.23807 123.73309 3940 ft 242 kts 131°
2026-05-07 05:59 10.22622 123.74519 3648 ft 241 kts 132°
2026-05-07 05:59 10.21437 123.75723 3362 ft 241 kts 132°
2026-05-07 05:59 10.20246 123.76934 3076 ft 245 kts 132°
2026-05-07 05:59 10.19898 123.77289 3027 ft 250 kts 132°
2026-05-07 06:00 10.19569 123.77625 3005 ft 254 kts 132°
2026-05-07 06:00 10.19153 123.78050 2976 ft 258 kts 132°
2026-05-07 06:00 10.17873 123.79354 2955 ft 262 kts 132°
2026-05-07 06:00 10.16771 123.80750 2882 ft 245 kts 114°
2026-05-07 06:01 10.16454 123.82356 2839 ft 226 kts 83°
2026-05-07 06:01 10.16982 123.83796 2738 ft 216 kts 55°
2026-05-07 06:01 10.17949 123.84903 2618 ft 209 kts 45°
2026-05-07 06:01 10.18973 123.85909 2555 ft 199 kts 45°
2026-05-07 06:02 10.19929 123.86841 2503 ft 182 kts 45°
2026-05-07 06:02 10.20792 123.87691 2425 ft 163 kts 45°
2026-05-07 06:02 10.21545 123.88441 2375 ft 139 kts 46°
2026-05-07 06:02 10.22186 123.89080 2272 ft 124 kts 45°
2026-05-07 06:03 10.22800 123.89692 2079 ft 123 kts 45°
2026-05-07 06:03 10.23409 123.90300 1929 ft 123 kts 46°
2026-05-07 06:03 10.24021 123.90914 1758 ft 123 kts 45°
2026-05-07 06:03 10.24633 123.91526 1622 ft 124 kts 45°
2026-05-07 06:04 10.25252 123.92148 1411 ft 126 kts 44°
2026-05-07 06:04 10.25879 123.92776 1276 ft 128 kts 45°
2026-05-07 06:04 10.26508 123.93407 1102 ft 126 kts 44°
2026-05-07 06:04 10.27135 123.94035 926 ft 124 kts 46°
2026-05-07 06:05 10.27736 123.94640 767 ft 122 kts 44°
2026-05-07 06:05 10.28340 123.95245 616 ft 122 kts 47°
2026-05-07 06:05 10.28941 123.95850 408 ft 122 kts 45°
2026-05-07 06:05 10.29551 123.96454 252 ft 123 kts 46°
2026-05-07 06:06 10.30153 123.97069 108 ft 120 kts 43°
2026-05-07 06:06 10.30718 123.97636 41 ft 94 kts 45°
2026-05-07 06:06 10.30978 123.97900 40 ft 26 kts 45°
2026-05-07 06:06 10.31097 123.98022 42 ft 23 kts 45°